Location: Axtheid
(49.6213°N, 11.8205°E)
Time: 12:41:37
(UTC+00:00)

NOSS 2-1 (E) - Pass Details

Date: 24 January 2021
Orbit: 434 x 1768 km, 63.3° (Epoch: 24 February)

Event Time Altitude Azimuth Distance (km) Brightness Sun altitude
Rises 17:44:25 0° 207° (SSW) 2,439 7.2 -17.5°
Reaches altitude 10° 17:46:32 10° 201° (SSW) 1,541 6.0 -17.8°
Enters shadow 17:49:40 48° 128° (SE) 589 3.1 -18.3°
